Beverly, MA

8:58 AM EDT on March 27, 2017 (GMT -0400)
Beverly Municipal

Weather History for KBVY - September, 2013

Change the Weather History Date:

Thursday, September 19, 2013

  Actual Average Record
Temperature  
Mean Temperature 60 °F -  
Max Temperature 75 °F 70 °F 89 °F (1983)
Min Temperature 46 °F 51 °F 36 °F (2014)
Degree Days  
Heating Degree Days 6    
Growing Degree Days 10 (Base 50)    
Moisture  
Dew Point 50 °F    
Average Humidity 72    
Maximum Humidity 90    
Minimum Humidity 48    
Precipitation  
Precipitation 0.00 in - - ()
Sea Level Pressure  
Sea Level Pressure 30.07 in    
Wind  
Wind Speed 3 mph (SSW)    
Max Wind Speed 7 mph    
Max Gust Speed -    
Visibility 10 miles    
Events      
Averages and records for this station are not official NWS values.
T = Trace of Precipitation, MM = Missing Value Source: NWS Daily Summary

Daily Weather History Graph

Daily Weather History Graph

Search for Another Location

Airport or City:

Trip Planner

Search our weather history database for the weather conditions in past years. The results will help you decide how hot, cold, wet, or windy it might be!

Date:

Astronomy

Sep. 19, 2013 Rise Set
Actual Time 6:28 AM EDT 6:45 PM EDT
Civil Twilight 5:59 AM EDT 7:14 PM EDT
Nautical Twilight 5:26 AM EDT 7:47 PM EDT
Astronomical Twilight 4:52 AM EDT 8:21 PM EDT
Moon 6:40 PM EDT (9/19) 6:34 AM EDT (9/19)
Length of Visible Light 13h 14m
Length of Day
12h 17m
Full, 100% of the Moon is Illuminated
Sep 19
Full
Sep 26
Last Quarter
Oct 4
New
Oct 11
First Quarter
Oct 18
Full

Hourly Weather History & Observations

Time (EDT) Temp. Dew Point Humidity Pressure Visibility Wind Dir Wind Speed Gust Speed Precip Events Conditions
12:53 AM 55.9 °F 46.9 °F 72% 30.12 in 10.0 mi WSW 6.9 mph - N/A   Clear
1:53 AM 54.0 °F 46.0 °F 75% 30.10 in 10.0 mi Calm Calm - N/A   Clear
2:53 AM 54.0 °F 46.9 °F 77% 30.10 in 10.0 mi Calm Calm - N/A   Clear
3:53 AM 50.0 °F 45.0 °F 83% 30.09 in 10.0 mi Calm Calm - N/A   Clear
4:53 AM 48.9 °F 45.0 °F 86% 30.09 in 10.0 mi Calm Calm - N/A   Clear
5:53 AM 46.9 °F 44.1 °F 90% 30.10 in 10.0 mi WSW 4.6 mph - N/A   Clear
6:53 AM 50.0 °F 45.0 °F 83% 30.11 in 10.0 mi Calm Calm - N/A   Clear
7:53 AM 54.0 °F 48.0 °F 80% 30.11 in 10.0 mi WNW 4.6 mph - N/A   Clear
8:53 AM 60.1 °F 48.9 °F 67% 30.11 in 10.0 mi NW 5.8 mph - N/A   Clear
9:53 AM 66.0 °F 51.1 °F 59% 30.11 in 10.0 mi NW 3.5 mph - N/A   Clear
10:53 AM 68.0 °F 51.1 °F 55% 30.11 in 10.0 mi ENE 3.5 mph - N/A   Clear
11:53 AM 71.1 °F 52.0 °F 51% 30.10 in 10.0 mi Calm Calm - N/A   Clear
12:53 PM 73.9 °F 53.1 °F 48% 30.08 in 10.0 mi NW 4.6 mph - N/A   Clear
1:53 PM 72.0 °F 54.0 °F 53% 30.07 in 10.0 mi SE 4.6 mph - N/A   Clear
2:53 PM 72.0 °F 54.0 °F 53% 30.05 in 10.0 mi SSE 6.9 mph - N/A   Clear
3:53 PM 72.0 °F 54.0 °F 53% 30.04 in 10.0 mi SSE 4.6 mph - N/A   Clear
4:53 PM 71.1 °F 54.0 °F 55% 30.03 in 10.0 mi SSE 5.8 mph - N/A   Clear
5:53 PM 64.9 °F 54.0 °F 68% 30.02 in 10.0 mi SSE 6.9 mph - N/A   Clear
6:53 PM 60.1 °F 54.0 °F 80% 30.03 in 10.0 mi SE 3.5 mph - N/A   Clear
7:53 PM 59.0 °F 54.0 °F 83% 30.04 in 10.0 mi Calm Calm - N/A   Clear
8:53 PM 55.0 °F 51.1 °F 86% 30.04 in 10.0 mi Calm Calm - N/A   Clear
9:53 PM 54.0 °F 51.1 °F 90% 30.05 in 10.0 mi Calm Calm - N/A   Clear
10:53 PM 53.1 °F 50.0 °F 89% 30.04 in 10.0 mi Calm Calm - N/A   Clear
11:53 PM 53.1 °F 50.0 °F 89% 30.04 in 10.0 mi Calm Calm - N/A   Clear